TimeCST,TemperatureF,Dew PointF,Humidity,Sea Level PressureIn,VisibilityMPH,Wind Direction,Wind SpeedMPH,Gust SpeedMPH,PrecipitationIn,Events,Conditions,WindDirDegrees,DateUTC
12:25 AM,34.0,23.0,64,29.96,10.0,NNE,9.2,-,N/A,,Mostly Cloudy,20,2014-03-01 06:25:00
12:53 AM,35.1,23.0,61,29.92,10.0,NNE,12.7,-,N/A,,Overcast,30,2014-03-01 06:53:00
1:53 AM,35.1,23.0,61,29.91,10.0,ENE,11.5,-,N/A,,Overcast,70,2014-03-01 07:53:00
2:53 AM,32.0,21.9,66,29.92,10.0,NNE,12.7,-,N/A,,Overcast,30,2014-03-01 08:53:00
3:53 AM,30.9,21.9,69,29.91,10.0,NE,6.9,-,N/A,,Overcast,50,2014-03-01 09:53:00
4:53 AM,28.9,21.0,72,29.93,10.0,NNE,9.2,-,N/A,,Overcast,30,2014-03-01 10:53:00
5:53 AM,28.0,21.0,75,29.94,10.0,NE,10.4,-,N/A,,Overcast,50,2014-03-01 11:53:00
6:06 AM,27.0,21.9,81,29.97,9.0,ENE,10.4,-,N/A,,Overcast,70,2014-03-01 12:06:00
6:41 AM,26.1,24.1,92,29.97,2.5,East,9.2,-,N/A,,Overcast,90,2014-03-01 12:41:00
6:53 AM,26.1,24.1,92,29.96,1.8,ENE,9.2,-,N/A,,Overcast,70,2014-03-01 12:53:00
7:05 AM,26.1,24.1,92,29.98,3.0,ENE,4.6,-,N/A,,Overcast,60,2014-03-01 13:05:00
7:14 AM,26.1,24.1,92,29.96,1.8,East,9.2,-,N/A,,Overcast,80,2014-03-01 13:14:00
7:35 AM,26.1,24.1,92,29.96,0.8,East,8.1,-,N/A,,Overcast,80,2014-03-01 13:35:00
7:53 AM,26.1,24.1,92,29.97,0.5,ENE,8.1,-,N/A,Fog,Light Freezing Fog,70,2014-03-01 13:53:00
8:25 AM,26.1,24.1,92,29.98,0.2,ENE,6.9,-,N/A,Fog,Light Freezing Fog,70,2014-03-01 14:25:00
8:46 AM,26.1,24.1,92,29.98,0.5,East,8.1,-,0.00,Fog-Snow,Light Snow,90,2014-03-01 14:46:00
8:53 AM,26.1,25.0,96,29.98,0.2,East,8.1,-,0.00,Fog,Light Freezing Fog,100,2014-03-01 14:53:00
9:05 AM,26.1,25.0,96,29.98,0.5,ENE,8.1,-,0.00,Fog-Snow,Light Snow,60,2014-03-01 15:05:00
9:38 AM,26.1,24.1,92,30.00,0.2,East,8.1,-,0.00,Fog,Light Freezing Fog,80,2014-03-01 15:38:00
9:53 AM,26.1,25.0,96,30.01,0.2,East,8.1,-,0.00,Fog,Light Freezing Fog,80,2014-03-01 15:53:00
10:53 AM,26.1,24.1,92,30.05,0.2,ENE,9.2,-,N/A,Fog,Light Freezing Fog,60,2014-03-01 16:53:00
11:53 AM,25.0,24.1,96,30.04,0.2,ENE,12.7,-,0.00,Fog,Light Freezing Fog,70,2014-03-01 17:53:00
12:53 PM,25.0,23.0,92,30.02,0.2,East,10.4,-,0.00,Fog,Light Freezing Fog,80,2014-03-01 18:53:00
1:53 PM,24.1,21.9,91,30.01,0.2,ENE,12.7,-,N/A,Fog,Light Freezing Fog,70,2014-03-01 19:53:00
2:53 PM,21.9,21.0,96,30.04,0.5,ENE,13.8,-,0.00,Fog-Snow,Light Snow,60,2014-03-01 20:53:00
3:53 PM,21.0,18.0,88,30.06,1.0,NE,15.0,-,0.00,,Overcast,50,2014-03-01 21:53:00
4:53 PM,19.9,16.0,85,30.07,1.5,NNE,19.6,25.3,0.00,,Overcast,30,2014-03-01 22:53:00
5:17 PM,18.0,14.0,84,30.07,2.0,NNE,18.4,26.5,N/A,,Overcast,20,2014-03-01 23:17:00
5:45 PM,18.0,14.0,84,30.08,2.0,North,19.6,-,0.00,Snow,Light Snow,10,2014-03-01 23:45:00
5:53 PM,18.0,12.9,81,30.16,2.0,North,20.7,-,0.00,Snow,Light Snow,10,2014-03-01 23:53:00
6:04 PM,17.1,12.0,81,30.11,3.0,North,18.4,26.5,0.00,Snow,Light Snow,10,2014-03-02 00:04:00
6:32 PM,16.0,12.0,84,30.09,2.0,NNE,16.1,-,0.00,Snow,Light Snow,20,2014-03-02 00:32:00
6:49 PM,15.8,10.4,79,30.09,4.0,NE,15.0,-,0.00,Snow,Light Snow,40,2014-03-02 00:49:00
6:53 PM,15.1,10.9,84,30.18,5.0,NE,18.4,-,0.00,Snow,Light Snow,40,2014-03-02 00:53:00
7:53 PM,12.9,9.0,84,30.21,5.0,NNE,15.0,-,0.00,Snow,Light Snow,20,2014-03-02 01:53:00
8:53 PM,12.0,8.1,84,30.24,4.0,NNE,13.8,-,0.00,Snow,Light Snow,30,2014-03-02 02:53:00
9:26 PM,12.0,8.1,84,30.18,9.0,NNE,10.4,-,0.00,,Overcast,20,2014-03-02 03:26:00
9:53 PM,12.0,8.1,84,30.25,8.0,NNE,9.2,-,0.00,,Overcast,30,2014-03-02 03:53:00
10:31 PM,12.0,8.1,84,30.17,6.0,NNE,10.4,-,0.00,Snow,Light Snow,30,2014-03-02 04:31:00
10:53 PM,12.0,8.1,84,30.28,6.0,NE,9.2,-,0.00,Snow,Light Snow,40,2014-03-02 04:53:00
11:41 PM,10.9,6.1,81,30.19,8.0,NNE,13.8,-,0.00,Snow,Light Snow,30,2014-03-02 05:41:00
11:53 PM,10.9,5.0,77,30.28,10.0,NNE,15.0,-,0.00,,Overcast,20,2014-03-02 05:53:00